Home   Weather   Mo i Rana   Past weeks

Flag for Norway Past Weather in Mo i Rana, Norway — Yesterday and Last 2 Weeks

Now
66 °F

Scattered clouds.


Feels Like: 66 °F
Forecast: 50 / 60 °F
Wind: 7 mph from Southeast

Location: Mo I Rana / Rossvoll

Current Time: Aug 19, 2017 at 3:11:36 pm

Latest Report: Aug 19, 2017 at 2:20 pm


Visibility: N/A

Pressure: 29.59 "Hg

Humidity: 60%

Dew Point: 52 °F

Location of Mo i RanaLocation

Past Weather in Mo i Rana — Graph

°F

Mo i Rana Temperature Yesterday

Maximum temperature yesterday: 63 °F (at 8:20 am)
Minimum temperature yesterday: 55 °F (at 9:50 pm)
Average temperature yesterday: 60 °F

High & Low Weather Summary for the Past Weeks

 TemperatureHumidityPressure
High73 °F (Aug 5, 2:50 pm)100% (Aug 8, 10:20 pm)30.12 "Hg (Aug 8, 10:20 pm)
Low46 °F (Aug 15, 5:50 am)33% (Aug 5, 3:50 pm)29.53 "Hg (Aug 11, 11:20 pm)
Average57 °F77%29.82 "Hg
* Reported Aug 4 1:20 pm — Aug 19 1:20 pm, Mo i Rana. Weather by CustomWeather, © 2017

Note: Actual official high and low records may vary slightly from our data, if they occured in-between our weather recording intervals... More about our weather records

Advertising

Mo i Rana Weather History for the Previous 24 Hours

Scroll right to see more
 ConditionsComfort  
Time TempWeatherWind HumidityBarometerVisibility
1:20 pm
Sat, Aug 19
66 °FScattered clouds.14 mph56%29.62 "HgN/A
12:50 pm66 °FScattered clouds.12 mph60%29.62 "HgN/A
12:20 pm66 °FScattered clouds.14 mph56%29.62 "HgN/A
11:50 am64 °FScattered clouds.12 mph64%29.62 "HgN/A
11:20 am63 °FScattered clouds.7 mph68%29.65 "HgN/A
10:50 am63 °FPartly sunny.8 mph64%29.65 "HgN/A
10:20 am63 °FScattered clouds.10 mph68%29.65 "HgN/A
9:50 am63 °FScattered clouds.9 mph64%29.62 "HgN/A
9:20 am61 °FScattered clouds.7 mph68%29.65 "HgN/A
8:50 am61 °FPartly sunny.12 mph68%29.65 "HgN/A
8:20 am61 °FScattered clouds.8 mph72%29.65 "HgN/A
11:20 pm
Fri, Aug 18
55 °FPassing clouds.No wind94%29.71 "HgN/A
10:50 pm55 °FPassing clouds.1 mph94%29.74 "HgN/A
10:20 pm55 °FPassing clouds.3 mph94%29.74 "HgN/A
9:50 pm55 °FPassing clouds.1 mph94%29.74 "HgN/A
9:20 pm57 °FPartly sunny.5 mph88%29.74 "HgN/A
8:50 pm57 °FPartly sunny.2 mph94%29.74 "HgN/A
7:50 pm57 °FPartly sunny.1 mph94%29.74 "HgN/A
7:20 pm59 °FSprinkles. Partly sunny.5 mph88%29.74 "HgN/A
6:50 pm59 °FScattered showers. Partly sunny.7 mph88%29.74 "HgN/A
6:20 pm61 °FScattered showers. Broken clouds.5 mph77%29.74 "HgN/A
5:50 pm61 °FScattered clouds.6 mph77%29.74 "HgN/A
5:20 pm61 °FScattered clouds.3 mph83%29.77 "HgN/A
4:50 pm59 °FBroken clouds.2 mph82%29.77 "HgN/A
4:20 pm59 °FBroken clouds.5 mph88%29.77 "HgN/A
3:50 pm59 °FBroken clouds.5 mph82%29.77 "HgN/A
3:20 pm59 °FBroken clouds.2 mph82%29.80 "HgN/A
Weather by CustomWeather, © 2017

See weather overviewHow to use our weather pages